www.pogodaiklimat.ru

Погода и климат >> Архив погоды >> Аргентина >> Mendoza


ПОГОДА в Mendoza

  • Прогноз погоды в Mendoza
  • Монитор погоды в Mendoza
  • Климат города

АРХИВ ПОГОДЫ в Mendoza

Время (UTC), дата Ветер
(напр.,м/с)
 
Видим.   Явления Облачность Т
(С)
Тd
(С)
f
(%)
Тe
(С)
Тes
(С)
Комфортность P
(гПа)
Po
(гПа)
Тmin
(С)
Tmax
(С)
R
(мм)
R24
(мм)
S
(см)
00 18.05 Ю 3 15 км 9/9 1500 м
[Sc]
+16.3 +8.5 60 +16 +16 1007.7 928.0 +12.4 +17.5
03 18.05 Ю 3 15 км 5/3 1500 м
[Sc Ac As]
+14.0 +8.4 69 +13 +13 1008.0 928.2
06 18.05 ЮВ 8 15 км 9/9 1200 м
[Sc]
+13.0 +9.2 78 +10 +10 1007.9 928.4
09 18.05 Ю 6 15 км в посл. час морось 10/8 600 м
[St As op]
+9.8 +8.6 92 +6 +6 1010.3 930.1
12 18.05 Ю 7 15 км слабая переохл. морось (гололёд) 10/10 900 м
[Frnb]
+9.3 +5.0 74 +6 +6 1013.1 932.5 +9.1 +16.3 3
15 18.05 Ю 7 15 км слабая морось 10/10 900 м
[Frnb]
+11.5 +3.7 59 +9 +9 1013.9 933.3
18 18.05 Ю 2 15 км слабая морось 10/8 900 м
[Frnb Ac As]
+10.9 +4.0 62 +10 +11 1013.5 932.6 0.3
21 18.05 ЮВ 2 15 км {морось} 10/8 900 м
[Frnb Ac As]
+11.9 +3.7 57 +12 +12 1014.5 933.3
03 19.05 ЮВ 3 15 км 9/1 1350 м
[Frnb Ac As]
+8.8 +6.5 85 +6 +6 1015.7 934.2
06 19.05 Ю 2 15 км 9/1 1350 м
[Sc Ac As]
+7.8 +5.7 87 +6 +6 1015.7 934.0
09 19.05 ЮВ 3 15 км 6/0
[Ac As]
+8.4 +6.7 89 +6 +6 1015.9 934.4
12 19.05 З 1 6000 м дымка {туман} 8/0
[Ac As Cs]
+6.4 +5.8 96 +5 +5 1017.9 935.7 +4.7 +10.9 0.3
15 19.05 В 4 15 км 5/1 1500 м
[Sc Ac As Cs]
+10.0 +3.6 64 +8 +11 1018.7 936.8
18 19.05 С 6 15 км 1/0
[Ac As]
+13.8 +3.0 48 +12 +15 1014.9 933.7
21 19.05 С 6 15 км 3/0
[Ac As Ci fib]
+14.0 +3.5 49 +12 +12 1012.3 931.4
00 20.05 С 2 15 км ясно +8.0 +4.7 80 +6 +6 1013.3 931.2 +6.4 +14.6
03 20.05 ЮЗ 2 15 км ясно +7.8 +3.0 72 +6 +6 1013.1 931.4
06 20.05 Ю 1 15 км ясно +7.4 +4.0 79 +7 +7 1012.1 931.0
09 20.05 З 2 15 км ясно +5.4 +3.1 85 +3 +3 1012.7 931.3
12 20.05 З 1 15 км 5/0
[Ac As Cs]
+5.0 +1.3 77 +4 +4 1016.0 933.4 +3.2 +8.4
15 20.05 СВ 1 15 км 1/0
[Ci]
+14.4 +1.5 42 +15 +22 1015.4 934.2
18 20.05 СВ 3 15 км ясно +17.8 -1.1 28 +18 +23 1012.5 931.8
21 20.05 СВ 3 15 км 1/0
[Ac As]
+17.3 -4.2 23 +17 +18 1012.1 931.2
00 21.05 СЗ 1 15 км ясно +10.2 +1.4 54 +10 +10 1013.8 931.8 +4.7 +18.5
03 21.05 Ю 1 15 км ясно +7.3 +2.4 71 +7 +7 1013.0 931.8
06 21.05 штиль 0 15 км ясно +5.7 +0.1 67 +5 +14 опасность
простуды
1011.9 931.2 555
09 21.05 СЗ 1 15 км ясно +5.3 0.0 69 +4 +4 1011.4 930.6
12 21.05 ЮВ 1 15 км 1/0
[Ac lent]
+5.8 -0.3 65 +5 +5 1012.3 930.5 +2.7 +10.2
15 21.05 ЮВ 3 15 км 3/0
[Ac As]
+12.8 +0.3 42 +12 +16 1011.4 930.2
18 21.05 СВ 2 15 км 3/0
[Ac As]
+18.4 -0.3 28 +19 +25 1008.2 927.8
21 21.05 ЮВ 2 15 км 5/1 1500 м
[Sc Ac As]
+19.4 -0.6 26 +20 +20 1008.5 928.2
00 22.05 ЮЗ 3 9000 м дым 4/0
[Ac lent Cc]
+13.8 +2.7 47 +13 +13 1010.6 929.4 +5.8 +21.5
03 22.05 ЮЗ 2 9000 м дым 1/0
[Ac As]
+11.0 +2.5 56 +10 +10 1010.7 930.1
06 22.05 Ю 3 15 км 1/0
[Ac As]
+10.0 +1.1 54 +8 +8 1009.6 929.7
09 22.05 Ю 1 15 км ясно +9.0 +2.6 64 +9 +9 1009.6 929.7
12 22.05 Ю 3 15 км 3/1 1500 м
[Cu hum Ac As Cs]
+9.0 +0.7 56 +7 +7 1011.7 930.9 +7.7 +13.8
15 22.05 Ю 3 15 км 4/0
[Ac As Cs]
+16.6 +0.9 35 +16 +20 1011.6 931.4
18 22.05 ЮВ 4 15 км 3/0
[Ac As Cs]
+18.8 +2.4 33 +19 +23 1009.4 929.6
21 22.05 ЮВ 3 15 км 4/0
[Ac As Cs]
+16.8 +4.0 43 +17 +17 1011.3 930.9
00 23.05 Ю 3 15 км ясно +14.0 +4.1 51 +13 +13 1015.1 934.0 +8.8 +19.5
03 23.05 ЮВ 5 15 км 8/8 1500 м
[Sc]
+12.2 +2.4 51 +10 +10 1015.8 935.4
06 23.05 Ю 3 15 км 9/9 1200 м
[Sc]
+11.1 +1.5 52 +10 +10 1015.3 935.0
09 23.05 штиль 0 15 км 9/9 900 м
[Sc]
+9.0 +0.4 55 +9 +9 1015.2 934.5
12 23.05 С 1 15 км 10/6 1350 м
[Sc Ac As]
+8.1 +2.0 65 +8 +8 1016.9 935.6 +8.1 +14.0
15 23.05 С 3 15 км 9/5 1500 м
[Sc Ac As Cs]
+11.3 +1.2 50 +10 +12 1016.7 935.6
18 23.05 В 2 15 км 10/0
[Ac As Cs]
+13.9 +2.0 44 +14 +18 1013.1 932.5
21 23.05 ЮВ 2 15 км 10/0
[Ac As Cs]
+13.1 +3.7 53 +13 +13 1012.7 931.7
00 24.05 Ю 2 15 км 9/0
[Ac As Cs]
+9.5 +2.7 63 +9 +9 1015.0 933.2 +8.1 +14.5
03 24.05 ЮВ 2 15 км 10/0
[Ac As Cs]
+8.8 +2.6 65 +8 +8 1015.4 933.8
06 24.05 штиль 0 15 км 10/0
[Ac As Cs]
+8.0 +2.7 69 +7 +7 1014.5 933.3
09 24.05 штиль 0 15 км 10/1 1200 м
[Sc Ac As Cs]
+7.0 +3.1 76 +6 +6 1013.8 932.4
12 24.05 Ю 1 8000 м дымка 8/0
[Ac As]
+6.0 +3.7 85 +5 +5 1015.2 933.0 +5.8 +9.7
15 24.05 ЮВ 2 15 км 8/3 1350 м
[Sc Ac As]
+10.2 +3.6 64 +9 +11 1015.0 933.4
18 24.05 Ю 2 15 км 8/1 1350 м
[Sc Ac As]
+11.4 +4.1 61 +10 +13 1012.3 931.0

 

Местоположение метеостанции Mendoza (Аргентина): широта -32.83 долгота -68.78 высота над уровнем моря 704 м.

В архиве по умолчанию представлена погода в Mendoza за последнюю неделю. Архивные данные за месяц целиком и за предыдущие месяцы, начиная с января 2011 года, Вы можете получить, выбрав интересующий диапазон дат из раскрывающегося списка и нажав кнопку "Ввод!".

Внимание! Время в таблицах - всемирное. Для получения местного времени необходимо прибавить поправку, которая в Mendoza равна -3 ч.

Смотрите также архив погоды в соседних городах и на ближайших метеорологических станциях:

Погода в San Martin (Аргентина) (44 км)
Погода в San Juan (Аргентина) (163 км)
Погода в Santiago (Чили) (189 км)
Погода в Pudahuel (Чили) (196 км)
Погода в San Rafael (Аргентина) (198 км)
Погода в San Luis (Аргентина) (232 км)
Погода в Punta Angeles (Чили) (268 км)
Погода в San Antonio (Чили) (275 км)
Погода в Santo Domingo (Чили) (279 км)
Погода в Malargue (Аргентина) (306 км)

Пояснения к столбцам:

Ветер - указаны скорость ветра в м/с - средняя за 10 мин, порывы в срок и между сроками (в фигурных скобках) и направление, откуда дует ветер: С - северный, СВ - северо-восточный, В - восточный, ЮВ - юго-восточный, Ю - южный, ЮЗ - юго-западный, З - западный, СЗ - северо-западный.
Видимость - горизонтальная дальность видимости в метрах или километрах. При видимости от 1 до 10 км при отсутствии осадков обычно наблюдается дымка, при ухудшении видимости до 1 км и менее - туман. В сухую погоду видимость может ухудшаться дымом, пылью или мглою.
Явления - указаны атмосферные явления, наблюдавшиеся в срок или в последний час перед сроком; фигурными скобками обозначены явления, наблюдавшиеся между сроками (за 1-3 часа до срока); квадратными скобками обозначены град или гололедные отложения с указанием их диаметра в мм.
Облачность - указаны через наклонную черту общая и нижняя облачность в баллах и высота нижней границы облаков в метрах; квадратными скобками обозначены формы облаков: Ci - перистые, Cs - перисто-слоистые, Cc - перисто-кучевые, Ac - высококучевые, As - высокослоистые, Sc - слоисто-кучевые, Ns - слоисто-дождевые, Cu - кучевые, Cb - кучево-дождевые. Подробнее классификацию облаков см. в Атласе облаков (PDF).
T - Температура воздуха - температура, измеренная на высоте 2 м над землей.
Td - Температура точки росы - температура, при понижении до которой содержащийся в воздухе водяной пар достигнет насыщения.
f - Относительная влажность воздуха - влажноcть воздуха, измеренная на высоте 2 м над землей.
Te - Эффективная температура - температура, которую ощущает одетый по сезону человек в тени. Характеристика душности погоды. При расчете учитывается влияние влажности воздуха и скорости ветра на теплоощущения человека.
Tes - Эффективная температура на солнце - температура, которую ощущает человек, с поправкой на солнечный нагрев. Характеристика знойности погоды. Зависит от высоты солнца над горизонтом, облачности и скорости ветра. Ночью, в пасмурную погоду, а также при ветре 12 м/с и более поправка равна нулю.
P - Атмосферное давление - приведенное к уровню моря атмосферное давление.
Po - Атмосферное давление - измеренное на уровне метеостанции атмосферное давление.
Tmin - Минимальная температура - минимум температуры воздуха на высоте 2 м над землей.
Tmax - Максимальная температура - максимум температуры воздуха на высоте 2 м над землей.
R - Количество осадков - Количество выпавших осадков за период времени, мм. При наведении курсора мыши на число - период времени, за который выпало указанное количество осадков.
R24 - Количество осадков - Количество выпавших осадков за 24 часа, мм.
S - Снежный покров - Высота снежного покрова, см. При наведении курсора мыши на число - состояние снежного покрова и степень покрытия местности в баллах.